Location: Unspecified
(0.0000°N, 0.0000°E)
Time: 00:52:46
(UTC+00:00)

ISS - Pass Details

Date: 18 February 2019
Orbit: 403 x 411 km, 51.6° (Epoch: 16 February)

Event Time Altitude Azimuth Distance (km) Brightness Sun altitude
Rises 04:48:17 0° 190° (S) 2,318 0.1 -21.0°
Reaches altitude 10° 04:50:55 10° 167° (SSE) 1,455 -0.7 -20.3°
Maximum altitude 04:53:04 16° 126° (SE) 1,129 -0.7 -19.8°
Drops below altitude 10° 04:55:12 10° 85° (E) 1,449 0.1 -19.3°
Sets 04:57:48 0° 63° (ENE) 2,303 0.8 -18.6°
